Time,TemperatureF,DewpointF,PressureIn,WindDirection,WindDirectionDegrees,WindSpeedMPH,WindSpeedGustMPH,Humidity,HourlyPrecipIn,Conditions,Clouds,dailyrainin,SolarRadiationWatts/m^2,SoftwareType,DateUTC
2013-04-10 00:02:00,73.0,62.0,-100.00,South,170,7.0,15.0,68,0.00,,,0.00,0.000000,,2013-04-10 05:02:00,
2013-04-10 00:13:00,73.0,62.0,-100.00,South,170,7.0,15.0,68,0.00,,,0.00,0.000000,,2013-04-10 05:13:00,
2013-04-10 00:23:00,73.0,62.0,-100.00,South,170,7.0,15.0,68,0.00,,,0.00,0.000000,,2013-04-10 05:23:00,
2013-04-10 00:33:00,73.0,62.0,-100.00,South,170,7.0,15.0,68,0.00,,,0.00,0.000000,,2013-04-10 05:33:00,
2013-04-10 01:03:00,74.0,61.0,-100.00,South,169,8.0,17.0,65,0.00,,,0.00,0.000000,,2013-04-10 06:03:00,
2013-04-10 01:12:00,74.0,61.0,-100.00,South,169,8.0,17.0,65,0.00,,,0.00,0.000000,,2013-04-10 06:12:00,
2013-04-10 01:22:00,74.0,61.0,-100.00,South,169,8.0,17.0,65,0.00,,,0.00,0.000000,,2013-04-10 06:22:00,
2013-04-10 01:32:00,74.0,61.0,-100.00,South,169,8.0,17.0,65,0.00,,,0.00,0.000000,,2013-04-10 06:32:00,
2013-04-10 02:02:00,72.0,61.0,-100.00,SSW,201,5.0,16.0,68,0.00,,,0.00,0.000000,,2013-04-10 07:02:00,
2013-04-10 02:12:00,72.0,61.0,-100.00,SSW,201,5.0,16.0,68,0.00,,,0.00,0.000000,,2013-04-10 07:12:00,
2013-04-10 02:22:00,72.0,61.0,-100.00,SSW,201,5.0,16.0,68,0.00,,,0.00,0.000000,,2013-04-10 07:22:00,
2013-04-10 02:32:00,72.0,61.0,-100.00,SSW,201,5.0,16.0,68,0.00,,,0.00,0.000000,,2013-04-10 07:32:00,
2013-04-10 03:02:00,71.0,61.0,-100.00,SSW,197,6.0,16.0,71,0.00,,,0.00,0.000000,,2013-04-10 08:02:00,
2013-04-10 03:12:00,71.0,61.0,-100.00,SSW,197,6.0,16.0,71,0.00,,,0.00,0.000000,,2013-04-10 08:12:00,
2013-04-10 03:22:00,71.0,61.0,-100.00,SSW,197,6.0,16.0,71,0.00,,,0.00,0.000000,,2013-04-10 08:22:00,
2013-04-10 03:32:00,71.0,61.0,-100.00,SSW,197,6.0,16.0,71,0.00,,,0.00,0.000000,,2013-04-10 08:32:00,
2013-04-10 04:02:00,71.0,62.0,-100.00,SSW,209,6.0,16.0,74,0.00,,,0.00,0.000000,,2013-04-10 09:02:00,
2013-04-10 04:12:00,71.0,62.0,-100.00,SSW,209,6.0,16.0,74,0.00,,,0.00,0.000000,,2013-04-10 09:12:00,
2013-04-10 04:22:00,71.0,62.0,-100.00,SSW,209,6.0,16.0,74,0.00,,,0.00,0.000000,,2013-04-10 09:22:00,
2013-04-10 04:32:00,71.0,62.0,-100.00,SSW,209,6.0,16.0,74,0.00,,,0.00,0.000000,,2013-04-10 09:32:00,
2013-04-10 05:03:00,71.0,63.0,-100.00,SSW,210,6.0,17.0,76,0.00,,,0.00,0.000000,,2013-04-10 10:03:00,
2013-04-10 05:13:00,71.0,63.0,-100.00,SSW,210,6.0,17.0,76,0.00,,,0.00,0.000000,,2013-04-10 10:13:00,
2013-04-10 05:23:00,71.0,63.0,-100.00,SSW,210,6.0,17.0,76,0.00,,,0.00,0.000000,,2013-04-10 10:23:00,
2013-04-10 05:33:00,71.0,63.0,-100.00,SSW,210,6.0,17.0,76,0.00,,,0.00,0.000000,,2013-04-10 10:33:00,
2013-04-10 06:02:00,71.0,63.0,-100.00,SW,215,6.0,16.0,76,0.00,,,0.00,0.000000,,2013-04-10 11:02:00,
2013-04-10 06:12:00,71.0,63.0,-100.00,SW,215,6.0,16.0,76,0.00,,,0.00,0.000000,,2013-04-10 11:12:00,
2013-04-10 06:22:00,71.0,63.0,-100.00,SW,215,6.0,16.0,76,0.00,,,0.00,0.000000,,2013-04-10 11:22:00,
2013-04-10 06:32:00,71.0,63.0,-100.00,SW,215,6.0,16.0,76,0.00,,,0.00,0.000000,,2013-04-10 11:32:00,
2013-04-10 09:02:00,72.0,60.0,-100.00,South,185,9.0,16.0,66,-99.99,,,0.00,175.000000,,2013-04-10 14:02:00,
2013-04-10 09:12:00,72.0,60.0,-100.00,South,185,9.0,16.0,66,-99.99,,,0.00,175.000000,,2013-04-10 14:12:00,
2013-04-10 09:22:00,72.0,60.0,-100.00,South,185,9.0,16.0,66,-99.99,,,0.00,175.000000,,2013-04-10 14:22:00,
2013-04-10 09:32:00,72.0,60.0,-100.00,South,185,9.0,16.0,66,-99.99,,,0.00,175.000000,,2013-04-10 14:32:00,
2013-04-10 10:02:00,73.0,61.0,-100.00,SSW,192,6.0,17.0,65,0.00,,,0.00,278.000000,,2013-04-10 15:02:00,
2013-04-10 10:12:00,73.0,61.0,-100.00,SSW,192,6.0,17.0,65,0.00,,,0.00,278.000000,,2013-04-10 15:12:00,
2013-04-10 10:22:00,73.0,61.0,-100.00,SSW,192,6.0,17.0,65,0.00,,,0.00,278.000000,,2013-04-10 15:22:00,
2013-04-10 10:32:00,73.0,61.0,-100.00,SSW,192,6.0,17.0,65,0.00,,,0.00,278.000000,,2013-04-10 15:32:00,
2013-04-10 11:03:00,74.0,61.0,-100.00,South,184,6.0,13.0,63,0.00,,,0.00,178.000000,,2013-04-10 16:03:00,
2013-04-10 11:13:00,74.0,61.0,-100.00,South,184,6.0,13.0,63,0.00,,,0.00,178.000000,,2013-04-10 16:13:00,
2013-04-10 11:23:00,74.0,61.0,-100.00,South,184,6.0,13.0,63,0.00,,,0.00,178.000000,,2013-04-10 16:23:00,
2013-04-10 11:33:00,74.0,61.0,-100.00,South,184,6.0,13.0,63,0.00,,,0.00,178.000000,,2013-04-10 16:33:00,
2013-04-10 12:02:00,79.0,62.0,-100.00,South,176,7.0,15.0,56,0.00,,,0.00,328.000000,,2013-04-10 17:02:00,
2013-04-10 12:12:00,79.0,62.0,-100.00,South,176,7.0,15.0,56,0.00,,,0.00,328.000000,,2013-04-10 17:12:00,
2013-04-10 12:22:00,79.0,62.0,-100.00,South,176,7.0,15.0,56,0.00,,,0.00,328.000000,,2013-04-10 17:22:00,
2013-04-10 12:33:00,79.0,62.0,-100.00,South,176,7.0,15.0,56,0.00,,,0.00,328.000000,,2013-04-10 17:33:00,
2013-04-10 13:03:00,80.0,62.0,-100.00,SSW,197,8.0,17.0,54,0.00,,,0.00,570.000000,,2013-04-10 18:03:00,
2013-04-10 13:12:00,80.0,62.0,-100.00,SSW,197,8.0,17.0,54,0.00,,,0.00,570.000000,,2013-04-10 18:12:00,
2013-04-10 13:23:00,80.0,62.0,-100.00,SSW,197,8.0,17.0,54,0.00,,,0.00,570.000000,,2013-04-10 18:23:00,
2013-04-10 13:33:00,80.0,62.0,-100.00,SSW,197,8.0,17.0,54,0.00,,,0.00,570.000000,,2013-04-10 18:33:00,
2013-04-10 14:03:00,81.0,61.0,-100.00,South,183,10.0,19.0,50,0.00,,,0.00,744.000000,,2013-04-10 19:03:00,
2013-04-10 14:12:00,81.0,61.0,-100.00,South,183,10.0,19.0,50,0.00,,,0.00,744.000000,,2013-04-10 19:12:00,
2013-04-10 14:22:00,81.0,61.0,-100.00,South,183,10.0,19.0,50,0.00,,,0.00,744.000000,,2013-04-10 19:22:00,
2013-04-10 14:33:00,81.0,61.0,-100.00,South,183,10.0,19.0,50,0.00,,,0.00,744.000000,,2013-04-10 19:33:00,
2013-04-10 15:03:00,83.0,61.0,-100.00,South,170,9.0,21.0,47,0.00,,,0.00,760.000000,,2013-04-10 20:03:00,
2013-04-10 15:12:00,83.0,61.0,-100.00,South,170,9.0,21.0,47,0.00,,,0.00,760.000000,,2013-04-10 20:12:00,
2013-04-10 15:23:00,83.0,61.0,-100.00,South,170,9.0,21.0,47,0.00,,,0.00,760.000000,,2013-04-10 20:23:00,
2013-04-10 15:33:00,83.0,61.0,-100.00,South,170,9.0,21.0,47,0.00,,,0.00,760.000000,,2013-04-10 20:33:00,
2013-04-10 16:03:00,85.0,61.0,-100.00,South,190,8.0,23.0,44,0.00,,,0.00,756.000000,,2013-04-10 21:03:00,
2013-04-10 16:13:00,85.0,61.0,-100.00,South,190,8.0,23.0,44,0.00,,,0.00,756.000000,,2013-04-10 21:13:00,
2013-04-10 16:22:00,85.0,61.0,-100.00,South,190,8.0,23.0,44,0.00,,,0.00,756.000000,,2013-04-10 21:22:00,
2013-04-10 16:33:00,85.0,61.0,-100.00,South,190,8.0,23.0,44,0.00,,,0.00,756.000000,,2013-04-10 21:33:00,
2013-04-10 17:03:00,83.0,59.0,-100.00,SSE,167,9.0,20.0,44,0.00,,,0.00,250.000000,,2013-04-10 22:03:00,
2013-04-10 17:13:00,83.0,59.0,-100.00,SSE,167,9.0,20.0,44,0.00,,,0.00,250.000000,,2013-04-10 22:13:00,
2013-04-10 17:23:00,83.0,59.0,-100.00,SSE,167,9.0,20.0,44,0.00,,,0.00,250.000000,,2013-04-10 22:23:00,
2013-04-10 17:33:00,83.0,59.0,-100.00,SSE,167,9.0,20.0,44,0.00,,,0.00,250.000000,,2013-04-10 22:33:00,
2013-04-10 18:03:00,83.0,59.0,-100.00,South,175,8.0,16.0,44,0.00,,,0.00,184.000000,,2013-04-10 23:03:00,
2013-04-10 18:12:00,83.0,59.0,-100.00,South,175,8.0,16.0,44,0.00,,,0.00,184.000000,,2013-04-10 23:12:00,
2013-04-10 18:22:00,83.0,59.0,-100.00,South,175,8.0,16.0,44,0.00,,,0.00,184.000000,,2013-04-10 23:22:00,
2013-04-10 18:33:00,83.0,59.0,-100.00,South,175,8.0,16.0,44,0.00,,,0.00,184.000000,,2013-04-10 23:33:00,
2013-04-10 19:02:00,81.0,58.0,-100.00,SSE,168,6.0,18.0,45,0.00,,,0.00,129.000000,,2013-04-11 00:02:00,
2013-04-10 19:12:00,81.0,58.0,-100.00,SSE,168,6.0,18.0,45,0.00,,,0.00,129.000000,,2013-04-11 00:12:00,
2013-04-10 19:22:00,81.0,58.0,-100.00,SSE,168,6.0,18.0,45,0.00,,,0.00,129.000000,,2013-04-11 00:22:00,
2013-04-10 19:32:00,81.0,58.0,-100.00,SSE,168,6.0,18.0,45,0.00,,,0.00,129.000000,,2013-04-11 00:32:00,
2013-04-10 20:02:00,79.0,56.0,-100.00,SSE,157,6.0,15.0,46,0.00,,,0.00,16.000000,,2013-04-11 01:02:00,
2013-04-10 20:12:00,79.0,56.0,-100.00,SSE,157,6.0,15.0,46,0.00,,,0.00,16.000000,,2013-04-11 01:12:00,
2013-04-10 20:22:00,79.0,56.0,-100.00,SSE,157,6.0,15.0,46,0.00,,,0.00,16.000000,,2013-04-11 01:22:00,
2013-04-10 20:32:00,79.0,56.0,-100.00,SSE,157,6.0,15.0,46,0.00,,,0.00,16.000000,,2013-04-11 01:32:00,
2013-04-10 21:03:00,78.0,57.0,-100.00,SSE,164,4.0,13.0,48,0.00,,,0.00,0.000000,,2013-04-11 02:03:00,
2013-04-10 21:12:00,78.0,57.0,-100.00,SSE,164,4.0,13.0,48,0.00,,,0.00,0.000000,,2013-04-11 02:12:00,
2013-04-10 21:22:00,78.0,57.0,-100.00,SSE,164,4.0,13.0,48,0.00,,,0.00,0.000000,,2013-04-11 02:22:00,
2013-04-10 21:32:00,78.0,57.0,-100.00,SSE,164,4.0,13.0,48,0.00,,,0.00,0.000000,,2013-04-11 02:32:00,
2013-04-10 22:02:00,78.0,57.0,-100.00,South,171,4.0,11.0,49,0.00,,,0.00,0.000000,,2013-04-11 03:02:00,
2013-04-10 22:12:00,78.0,57.0,-100.00,South,171,4.0,11.0,49,0.00,,,0.00,0.000000,,2013-04-11 03:12:00,
2013-04-10 22:22:00,78.0,57.0,-100.00,South,171,4.0,11.0,49,0.00,,,0.00,0.000000,,2013-04-11 03:22:00,
2013-04-10 22:33:00,78.0,57.0,-100.00,South,171,4.0,11.0,49,0.00,,,0.00,0.000000,,2013-04-11 03:33:00,
2013-04-10 23:03:00,78.0,57.0,-100.00,SSE,148,7.0,12.0,48,0.00,,,0.00,0.000000,,2013-04-11 04:03:00,
2013-04-10 23:13:00,78.0,57.0,-100.00,SSE,148,7.0,12.0,48,0.00,,,0.00,0.000000,,2013-04-11 04:13:00,
2013-04-10 23:22:00,78.0,57.0,-100.00,SSE,148,7.0,12.0,48,0.00,,,0.00,0.000000,,2013-04-11 04:22:00,
2013-04-10 23:33:00,78.0,57.0,-100.00,SSE,148,7.0,12.0,48,0.00,,,0.00,0.000000,,2013-04-11 04:33:00,